GW1009 Weather Reports


time (UTC)temp
F
wind
direction
speed
knots
gust
knots
rain 1hr
in
rain 24hr
in
rain mn
in
humidity
%
barometer
mb
20260902224514 69 146 4.3 9.6 0.00 0.21 0.21 86 1013.3
20260902224016 69 129 3.5 7.0 0.00 0.21 0.21 86 1013.5
20260902223511 69 142 2.6 7.8 0.00 0.21 0.21 86 1013.7
20260902223011 69 142 2.6 7.8 0.00 0.21 0.21 86 1014.0
20260902222510 69 134 2.6 6.1 0.00 0.21 0.21 85 1014.2
20260902222011 70 136 0.9 5.2 0.00 0.21 0.21 85 1014.4
20260902221517 70 155 1.7 4.3 0.00 0.21 0.21 85 1014.3
20260902221009 70 157 0.0 5.2 0.00 0.21 0.21 85 1014.7
20260902220508 70 193 0.9 5.2 0.00 0.21 0.21 84 1014.6
20260902220009 70 169 1.7 6.1 0.00 0.21 0.21 84 1014.8
20260902215510 70 160 1.7 7.0 0.00 0.21 0.21 84 1014.8
20260902215007 71 146 1.7 7.0 0.00 0.21 0.21 84 1014.8
20260902214508 71 144 0.9 6.1 0.00 0.21 0.21 84 1014.8
20260902214008 71 178 1.7 6.1 0.00 0.21 0.21 83 1014.8
20260902213507 71 192 0.9 6.1 0.00 0.21 0.21 83 1014.8
20260902213007 71 163 1.7 7.0 0.00 0.21 0.21 82 1014.8
20260902212507 71 179 2.6 7.0 0.00 0.21 0.21 82 1014.8
20260902212008 71 162 3.5 10.4 0.00 0.21 0.21 81 1014.9
20260902211508 71 189 7.0 10.4 0.00 0.21 0.21 81 1014.9
20260902211009 72 199 0.9 6.1 0.00 0.21 0.21 82 1014.9
20260902210507 72 180 1.7 6.1 0.00 0.21 0.21 82 1014.9
20260902210006 71 179 2.6 7.8 0.00 0.21 0.21 82 1014.8
20260902205605 72 129 3.5 7.8 0.00 0.21 0.21 82 1014.7
20260902205005 72 207 3.5 7.0 0.00 0.21 0.21 82 1014.9
20260902204505 72 197 1.7 7.0 0.00 0.21 0.21 81 1014.8
20260902204004 72 209 2.6 7.8 0.00 0.21 0.21 82 1014.8
20260902203504 72 166 3.5 8.7 0.00 0.21 0.21 82 1014.9
20260902203004 71 192 2.6 8.7 0.00 0.21 0.21 82 1014.9
20260902202504 71 183 3.5 7.8 0.00 0.21 0.21 82 1014.8
20260902202004 71 120 4.3 8.7 0.00 0.21 0.21 81 1014.7
20260902201502 71 181 4.3 8.7 0.00 0.21 0.21 82 1014.8
20260902201004 71 188 3.5 8.7 0.00 0.21 0.21 82 1014.8
20260902200501 71 199 4.3 8.7 0.00 0.21 0.21 83 1014.9
20260902200113 71 150 2.6 7.0 0.00 0.21 0.21 84 1014.9
20260902195601 70 159 2.6 7.0 0.00 0.21 0.21 85 1015.0
20260902195159 70 169 1.7 6.1 0.00 0.21 0.21 85 1014.9
20260902194601 70 198 2.6 8.7 0.00 0.21 0.21 84 1015.0
20260902194100 70 140 3.5 8.7 0.00 0.21 0.21 83 1015.0
20260902193602 70 157 2.6 7.8 0.00 0.21 0.21 83 1014.9
20260902193058 70 124 3.5 7.8 0.00 0.21 0.21 83 1015.1
20260902192558 70 132 2.6 6.1 0.00 0.21 0.21 83 1015.2
20260902192102 70 152 0.9 4.3 0.00 0.21 0.21 83 1015.3
20260902191557 70 144 0.9 6.1 0.00 0.21 0.21 84 1015.3
20260902191055 70 152 2.6 6.1 0.00 0.21 0.21 84 1015.2
20260902190555 69 192 1.7 6.1 0.00 0.21 0.21 85 1015.2
20260902190056 69 177 1.7 6.1 0.00 0.21 0.21 85 1015.2
20260902185556 69 182 1.7 6.1 0.00 0.21 0.21 86 1015.3
20260902185054 69 204 3.5 7.0 0.00 0.21 0.21 86 1015.3
20260902184559 69 156 0.9 5.2 0.00 0.21 0.21 86 1015.3
20260902184054 69 193 2.6 7.0 0.00 0.21 0.21 86 1015.4
20260902183554 69 190 1.7 7.0 0.00 0.21 0.21 87 1015.5
20260902183054 69 203 0.9 7.8 0.00 0.21 0.21 88 1015.6
20260902182552 70 232 0.9 7.8 0.00 0.21 0.21 90 1015.8
20260902182052 69 209 2.6 7.8 0.00 0.21 0.21 91 1015.8
20260902181550 69 271 0.0 5.2 0.00 0.21 0.21 92 1015.9
20260902181050 69 192 1.7 5.2 0.00 0.21 0.21 93 1016.0
20260902180549 69 241 0.9 6.1 0.00 0.21 0.21 94 1015.7
20260902180108 69 117 0.9 5.2 0.00 0.21 0.21 1015.6
20260902175550 69 150 2.6 13.9 0.00 0.21 0.21 95 1015.3
20260902175048 68 204 5.2 8.7 0.00 0.21 0.21 95 1015.4
20260902174546 68 198 0.9 10.4 0.01 0.21 0.21 95 1015.5
20260902174050 68 203 5.2 10.4 0.02 0.21 0.21 95 1015.8
20260902173545 68 291 0.9 10.4 0.04 0.21 0.21 95 1015.5
20260902173044 68 150 4.3 10.4 0.05 0.21 0.21 95 1015.1
20260902172545 67 178 4.3 7.8 0.06 0.21 0.21 95 1014.9
20260902172043 67 339 1.7 5.2 0.07 0.21 0.21 95 1015.0
20260902171542 67 296 0.9 9.6 0.09 0.21 0.21 95 1015.5
20260902171042 67 297 6.1 9.6 0.10 0.21 0.21 95 1015.2
20260902170541 67 306 6.1 10.4 0.11 0.21 0.21 95 1015.0
20260902170041 66 331 2.6 10.4 0.12 0.21 0.21 95 1014.4
20260902165540 66 209 3.5 9.6 0.13 0.21 0.21 95 1014.2
20260902165038 67 160 2.6 8.7 0.14 0.20 0.20 95 1014.7
20260902164537 66 186 1.7 13.9 0.15 0.20 0.20 95 1015.2
20260902164036 66 199 4.3 13.9 0.16 0.19 0.19 95 1015.3
20260902163536 66 140 0.9 19.1 0.14 0.17 0.17 96 1015.4
20260902163036 66 162 6.1 19.1 0.13 0.15 0.15 96 1015.4
20260902162535 66 207 9.6 20.0 0.13 0.15 0.15 96 1015.5
20260902162036 66 179 9.6 17.4 0.12 0.14 0.14 96 1015.5
20260902161547 67 138 6.1 15.6 0.11 0.12 0.12 96 1015.7
20260902161034 67 203 7.0 15.6 0.10 0.11 0.11 96 1015.9
20260902160533 67 185 7.8 14.8 0.10 0.10 0.10 96 1016.4
20260902160033 67 205 6.1 13.0 0.09 0.09 0.09 96 1016.8
20260902155533 67 198 3.5 7.8 0.07 0.07 0.07 96 1016.8
20260902155033 67 191 0.9 11.3 0.06 0.06 0.06 96 1017.0
20260902154534 67 229 4.3 11.3 0.05 0.05 0.05 96 1016.8
20260902154031 67 194 2.6 8.7 0.03 0.03 0.03 96 1016.8
20260902153531 67 200 1.7 8.7 0.03 0.03 0.03 96 1016.8
20260902153030 66 195 0.0 2.6 0.02 0.02 0.02 96 1016.6
20260902152528 65 111 0.0 1.7 0.02 0.02 0.02 96 1016.5
20260902152030 65 111 0.0 1.7 0.01 0.01 0.01 96 1016.5
20260902151527 65 123 0.0 2.6 0.01 0.01 0.01 96 1016.5
20260902151029 65 123 0.9 4.3 0.01 0.01 0.01 96 1016.5
20260902150526 65 124 0.9 4.3 0.00 0.00 0.00 96 1016.6
20260902150026 65 101 1.7 5.2 0.00 0.00 0.00 96 1016.6
20260902145526 65 96 2.6 5.2 0.00 0.01 0.00 96 1016.6
20260902145026 65 83 2.6 5.2 0.00 0.01 0.00 96 1016.6
20260902144532 65 93 1.7 5.2 0.00 0.01 0.00 96 1016.7
20260902144025 64 115 1.7 3.5 0.00 0.01 0.00 96 1016.8
20260902143526 64 115 1.7 6.1 0.00 0.01 0.00 96 1016.8
20260902143026 64 115 2.6 6.1 0.00 0.01 0.00 96 1016.8
20260902142525 64 101 1.7 5.2 0.00 0.01 0.00 96 1016.9
20260902142025 64 134 1.7 4.3 0.00 0.01 0.00 96 1016.8
20260902141526 64 127 0.9 2.6 0.00 0.01 0.00 96 1016.9
20260902141024 64 96 0.9 2.6 0.00 0.01 0.00 96 1017.0
20260902140522 64 95 1.7 3.5 0.00 0.01 0.00 96 1017.0
20260902140022 64 92 0.9 3.5 0.00 0.01 0.00 96 1016.8
20260902135521 64 103 0.9 3.5 0.00 0.01 0.00 96 1016.6
20260902135021 65 107 1.7 3.5 0.00 0.01 0.00 96 1016.5
20260902134533 65 110 1.7 6.1 0.00 0.01 0.00 96 1016.7
20260902134022 64 121 2.6 6.1 0.00 0.01 0.00 96 1016.7
20260902133520 64 141 3.5 6.1 0.00 0.01 0.00 95 1016.6
20260902133023 64 135 2.6 3.5 0.00 0.01 0.00 96 1016.4
20260902132521 64 113 1.7 3.5 0.00 0.01 0.00 96 1016.4
20260902132020 65 111 0.0 5.2 0.00 0.01 0.00 96 1016.5
20260902131519 64 105 1.7 5.2 0.00 0.01 0.00 96 1016.5
20260902131019 64 103 1.7 5.2 0.00 0.01 0.00 96 1016.5
20260902130522 64 105 0.9 5.2 0.00 0.01 0.00 96 1016.5
20260902130019 64 96 1.7 5.2 0.00 0.01 0.00 96 1016.5
20260902125519 64 92 1.7 5.2 0.00 0.01 0.00 96 1016.7
20260902125022 64 95 0.9 5.2 0.00 0.01 0.00 96 1016.7
20260902124519 64 82 0.9 3.5 0.00 0.01 0.00 96 1016.7
20260902124018 63 94 1.7 5.2 0.00 0.01 0.00 96 1016.6
20260902123518 63 95 1.7 5.2 0.00 0.01 0.00 96 1016.6
20260902123020 63 84 1.7 4.3 0.00 0.01 0.00 96 1016.7
20260902122519 63 84 2.6 4.3 0.00 0.01 0.00 96 1016.6
20260902122016 63 55 2.6 6.1 0.00 0.01 0.00 96 1016.5
20260902121516 63 84 2.6 6.1 0.00 0.01 0.00 96 1016.4
20260902121017 62 76 2.6 4.3 0.00 0.01 0.00 96 1016.4
20260902120516 62 87 1.7 6.1 0.00 0.01 0.00 96 1016.4
20260902120016 62 71 3.5 6.1 0.00 0.01 0.00 96 1016.5
20260902115521 62 92 2.6 6.1 0.00 0.01 0.00 96 1016.3
20260902115015 62 86 3.5 7.0 0.00 0.01 0.00 96 1016.2
20260902114516 62 81 2.6 7.0 0.00 0.01 0.00 95 1016.3
20260902114115 62 98 4.3 7.0 0.00 0.01 0.00 95 1016.3
20260902113515 62 131 3.5 7.8 0.00 0.01 0.00 95 1016.0
20260902113031 62 106 2.6 7.0 0.00 0.01 0.00 95 1016.1
20260902112515 62 111 3.5 7.0 0.00 0.01 0.00 95 1016.2
20260902112015 62 121 3.5 8.7 0.00 0.01 0.00 95 1016.0
20260902111519 62 88 4.3 8.7 0.00 0.01 0.00 95 1016.0
20260902111013 62 120 2.6 7.0 0.00 0.01 0.00 95 1015.8
20260902110517 62 131 3.5 7.0 0.00 0.01 0.00 95 1016.1
20260902110013 62 117 2.6 7.0 0.00 0.01 0.00 95 1016.1
20260902105513 62 136 3.5 7.8 0.00 0.04 0.00 95 1016.2
20260902105015 62 101 3.5 7.8 0.00 0.04 0.00 95 1016.2
20260902104515 62 130 2.6 7.8 0.00 0.04 0.00 95 1016.3
20260902104013 62 114 2.6 7.0 0.00 0.04 0.00 95 1016.4
20260902103512 62 101 2.6 7.0 0.00 0.04 0.00 95 1016.4
20260902103024 62 97 2.6 7.0 0.00 0.04 0.00 95 1016.5
20260902102512 62 98 3.5 7.0 0.00 0.04 0.00 95 1016.5
20260902102012 62 101 1.7 6.1 0.00 0.04 0.00 95 1016.3
20260902101514 62 72 0.9 6.1 0.00 0.04 0.00 95 1016.3
20260902101010 62 128 1.7 7.0 0.00 0.04 0.00 95 1016.4
20260902100510 62 163 1.7 7.0 0.00 0.04 0.00 95 1016.3
20260902100015 63 111 0.9 7.8 0.00 0.04 0.00 95 1016.4
20260902095509 63 107 1.7 7.8 0.00 0.07 0.00 95 1016.3
20260902095008 63 99 1.7 7.0 0.00 0.07 0.00 95 1016.3
20260902094508 63 113 3.5 7.0 0.00 0.07 0.00 95 1016.2
20260902094009 63 76 1.7 6.1 0.00 0.07 0.00 95 1016.2
20260902093507 63 112 0.9 6.1 0.00 0.07 0.00 95 1016.2
20260902093006 63 140 1.7 6.1 0.00 0.07 0.00 99 1016.1
20260902092506 63 109 0.9 6.1 0.00 0.07 0.00 95 1016.2
20260902092005 64 141 2.6 6.1 0.00 0.07 0.00 95 1016.2
20260902091504 64 126 2.6 7.8 0.00 0.07 0.00 95 1016.1
20260902091004 64 128 3.5 7.8 0.00 0.07 0.00 95 1016.1
20260902090503 64 88 1.7 6.1 0.00 0.07 0.00 95 1016.1
20260902090003 64 119 0.9 5.2 0.00 0.07 0.00 95 1016.1
20260902085502 64 119 0.9 4.3 0.00 0.12 0.00 95 1016.1
20260902085002 64 91 0.9 3.5 0.00 0.12 0.00 95 1016.1
20260902084502 64 128 0.9 6.1 0.00 0.12 0.00 95 1016.0
20260902084002 64 101 2.6 6.1 0.00 0.12 0.00 95 1015.9
20260902083505 64 101 0.9 7.0 0.00 0.12 0.00 95 1015.9
20260902083001 64 109 3.5 7.0 0.00 0.12 0.00 95 1015.8
20260902082501 64 89 0.9 7.0 0.00 0.12 0.00 95 1015.7
20260902082101 64 121 1.7 7.0 0.00 0.12 0.00 95 1015.6
20260902081606 64 92 2.6 6.1 0.00 0.12 0.00 95 1015.7
20260902081059 65 101 1.7 3.5 0.00 0.12 0.00 95 1015.7
20260902080559 65 91 0.9 3.5 0.00 0.12 0.00 95 1015.7
20260902080059 65 120 0.9 3.5 0.00 0.12 0.00 95 1015.6
20260902075558 65 106 0.0 3.5 0.00 0.15 0.00 95 1015.7
20260902075102 65 141 0.9 2.6 0.00 0.15 0.00 95 1015.7
20260902074600 65 107 0.0 5.2 0.00 0.15 0.00 95 1015.7
20260902074058 65 107 0.9 5.2 0.00 0.15 0.00 95 1015.6
20260902073557 65 133 1.7 7.0 0.00 0.15 0.00 95 1015.6
20260902073059 65 121 3.5 7.0 0.00 0.15 0.00 95 1015.4
20260902072557 65 139 2.6 7.0 0.00 0.15 0.00 95 1015.5
20260902072056 65 119 2.6 7.0 0.00 0.15 0.00 95 1015.5
20260902071600 65 133 2.6 7.8 0.00 0.15 0.00 95 1015.6
20260902071055 65 146 3.5 8.7 0.00 0.15 0.00 95 1015.6
20260902070555 65 138 3.5 8.7 0.00 0.15 0.00 95 1015.7
20260902070054 65 136 5.2 7.8 0.00 0.15 0.00 95 1015.7
20260902065556 65 116 1.7 7.0 0.00 0.16 0.00 95 1015.8
20260902065054 65 131 2.6 7.0 0.00 0.16 0.00 95 1015.8
20260902064601 65 145 3.5 7.0 0.00 0.16 0.00 95 1015.8
20260902064053 65 121 1.7 5.2 0.00 0.16 0.00 95 1015.9
20260902063553 65 87 1.7 5.2 0.00 0.16 0.00 95 1015.9
20260902063054 65 95 1.7 6.1 0.00 0.16 0.00 95 1015.9
20260902062556 65 120 0.9 5.2 0.00 0.16 0.00 95 1016.0
20260902062052 65 108 1.7 6.1 0.00 0.16 0.00 95 1016.0
20260902061604 65 136 2.6 6.1 0.00 0.16 0.00 95 1015.9
20260902061051 65 114 2.6 7.0 0.00 0.16 0.00 95 1016.0
20260902060550 65 134 2.6 7.8 0.00 0.16 0.00 95 1016.0
20260902060054 65 135 2.6 7.8 0.00 0.16 0.00 95 1016.0
20260902055553 65 130 3.5 7.8 0.00 0.17 0.00 95 1016.0
20260902055050 65 139 3.5 7.8 0.00 0.17 0.00 95 1015.8
20260902054552 65 109 3.5 6.1 0.00 0.17 0.00 95 1015.9
20260902054048 65 141 2.6 6.1 0.00 0.17 0.00 95 1016.0
20260902053548 65 109 2.6 6.1 0.00 0.17 0.00 95 1015.9
20260902053048 65 109 1.7 4.3 0.00 0.17 0.00 95 1015.8
20260902052546 65 101 1.7 5.2 0.00 0.17 0.00 95 1015.8
20260902052046 65 103 2.6 5.2 0.00 0.17 0.00 95 1015.8
20260902051546 65 116 0.9 2.6 0.00 0.17 0.00 95 1015.7
20260902051047 65 93 0.9 6.1 0.00 0.17 0.00 95 1015.8
20260902050545 65 99 1.7 5.2 0.00 0.17 0.00 95 1015.7
20260902050047 65 98 0.9 5.2 0.00 0.17 0.00 95 1015.7
20260902045543 65 129 0.9 5.2 0.00 0.17 0.00 95 1015.6
20260902045047 65 107 0.9 5.2 0.00 0.17 0.00 95 1015.5
20260902044543 65 111 0.9 5.2 0.00 0.17 0.00 95 1015.4
20260902044043 65 112 1.7 5.2 0.00 0.17 0.00 95 1015.3
20260902043545 65 100 1.7 3.5 0.00 0.17 0.00 95 1015.3
20260902043042 65 87 1.7 3.5 0.00 0.17 0.00 95 1015.4
20260902042542 65 133 0.9 1.7 0.00 0.17 0.00 95 1015.5
20260902042042 65 138 0.0 2.6 0.00 0.17 0.00 95 1015.5
20260902041541 65 138 0.9 3.5 0.00 0.17 0.00 95 1015.5
20260902041042 65 139 0.9 3.5 0.00 0.17 0.00 95 1015.4
20260902040542 65 137 0.9 2.6 0.00 0.17 0.00 94 1015.3
20260902040040 65 137 0.0 3.5 0.00 0.17 0.00 94 1015.3
20260902035538 65 137 1.7 3.5 0.00 0.17 0.17 94 1015.2
20260902035037 65 120 0.0 3.5 0.00 0.17 0.17 94 1015.1
20260902034537 65 101 0.9 3.5 0.00 0.17 0.17 94 1015.0
20260902034037 65 110 0.9 7.0 0.00 0.17 0.17 94 1015.0
20260902033539 65 134 3.5 7.0 0.00 0.17 0.17 94 1015.1
20260902033037 65 142 1.7 5.2 0.00 0.17 0.17 94 1015.1
20260902032537 65 96 2.6 5.2 0.00 0.17 0.17 94 1015.1
20260902032038 65 80 1.7 6.1 0.00 0.17 0.17 94 1015.2
20260902031536 65 102 1.7 6.1 0.00 0.17 0.17 94 1015.2
20260902031036 65 127 1.7 7.0 0.00 0.17 0.17 94 1015.1
20260902030535 65 150 2.6 7.0 0.00 0.17 0.17 94 1015.3
20260902030036 65 106 2.6 5.2 0.00 0.17 0.17 94 1015.3
20260902025535 65 99 1.7 7.0 0.00 0.17 0.17 94 1015.2
20260902025035 65 141 3.5 7.8 0.00 0.17 0.17 94 1015.1
20260902024535 65 132 3.5 7.8 0.00 0.17 0.17 94 1015.1
20260902024034 65 141 3.5 7.0 0.00 0.17 0.17 94 1015.0
20260902023534 65 134 3.5 8.7 0.00 0.17 0.17 94 1015.1
20260902023042 65 138 6.1 8.7 0.00 0.17 0.17 94 1015.1
20260902022534 65 123 6.1 8.7 0.00 0.17 0.17 94 1015.3
20260902022034 65 130 3.5 8.7 0.00 0.17 0.17 94 1015.4
20260902021534 65 106 2.6 6.1 0.00 0.17 0.17 94 1015.5
20260902021033 65 130 1.7 7.0 0.00 0.17 0.17 94 1015.6
20260902020533 65 91 3.5 7.0 0.00 0.17 0.17 94 1015.6
20260902020032 65 104 3.5 7.8 0.00 0.17 0.17 94 1015.6
20260902015531 65 101 3.5 7.8 0.00 0.17 0.17 94 1015.5
20260902015032 65 114 3.5 7.0 0.00 0.17 0.17 94 1015.3
20260902014541 65 112 2.6 5.2 0.00 0.17 0.17 94 1015.4
20260902014033 65 117 1.7 5.2 0.00 0.17 0.17 94 1015.4
20260902013531 65 148 1.7 5.2 0.00 0.17 0.17 94 1015.3
20260902013031 65 138 1.7 5.2 0.00 0.17 0.17 95 1015.4
20260902012531 65 107 0.9 6.1 0.00 0.17 0.17 94 1015.3
20260902012034 65 89 2.6 7.0 0.00 0.17 0.17 94 1015.1
20260902011542 65 79 3.5 7.0 0.00 0.17 0.17 94 1015.1
20260902011030 65 96 2.6 7.0 0.00 0.17 0.17 94 1015.0
20260902010533 65 113 3.5 7.0 0.00 0.17 0.17 94 1014.9
20260902010032 65 141 3.5 7.0 0.00 0.17 0.17 94 1014.9
20260902005532 65 147 2.6 6.1 0.00 0.17 0.17 94 1014.8
20260902005030 65 109 3.5 7.8 0.00 0.17 0.17 94 1014.8
20260902004530 65 112 2.6 7.8 0.00 0.17 0.17 94 1014.6
20260902004033 65 105 2.6 7.8 0.00 0.17 0.17 95 1014.5
20260902003529 65 112 3.5 7.8 0.00 0.17 0.17 94 1014.3
20260902003029 65 96 2.6 7.8 0.00 0.17 0.17 94 1014.2
20260902002528 65 89 3.5 8.7 0.00 0.17 0.17 94 1014.2
20260902002034 65 114 2.6 8.7 0.00 0.17 0.17 94 1014.0
20260902001528 65 113 3.5 8.7 0.00 0.17 0.17 94 1014.0
20260902001028 65 134 5.2 8.7 0.00 0.17 0.17 94 1014.0
20260902000528 65 124 2.6 6.1 0.00 0.17 0.17 94 1014.0
20260902000033 65 110 2.6 7.8 0.00 0.17 0.17 94 1014.0
20260901235527 65 113 2.6 7.8 0.00 0.17 0.17 94 1014.0
20260901235026 65 115 3.5 7.0 0.00 0.17 0.17 94 1014.0
20260901234526 65 139 2.6 7.0 0.00 0.17 0.17 94 1014.0
20260901234027 65 94 2.6 7.0 0.00 0.17 0.17 94 1014.0
20260901233527 65 115 4.3 7.0 0.00 0.17 0.17 94 1014.1
20260901233027 65 114 1.7 7.8 0.00 0.17 0.17 94 1013.9
20260901232526 65 97 3.5 7.8 0.00 0.17 0.17 94 1013.9
20260901232026 65 114 4.3 7.8 0.00 0.17 0.17 94 1013.9
20260901231526 65 117 2.6 8.7 0.00 0.17 0.17 94 1014.1
20260901231026 65 98 3.5 8.7 0.00 0.17 0.17 94 1014.0
20260901230525 65 140 4.3 7.8 0.00 0.17 0.17 94 1014.0
20260901230025 65 96 2.6 8.7 0.00 0.17 0.17 94 1014.0
20260901225526 65 106 5.2 8.7 0.00 0.17 0.17 93 1013.9
20260901225025 65 143 6.1 8.7 0.00 0.17 0.17 93 1014.0